Tracking 19846 objects as of 18-Sep-2019
HD Live streaming from Space Station
objects crossing your sky now

GORIZONT 6

Track GORIZONT 6 now!
GORIZONT 6 is classified as:


NORAD ID: 13624
Int'l Code: 1982-103A
Perigee: 35,756.0 km
Apogee: 35,770.6 km
Inclination: 12.4 °
Period: 1,434.5 minutes
Semi major axis: 42134 km
RCS: 3.1622 m2 (large)
Launch date: October 20, 1982
Source: Commonwealth of Independent States (former USSR) (CIS)
Launch site: TYURATAM MISSILE AND SPACE COMPLEX (TTMTR)
aabbcc
Your satellite tracking list
Your tracking list is empty




NASA's NSSDC Master Catalog

Two Line Element Set (TLE):
1 13624U 82103A   19260.49360742 -.00000097 +00000-0 +00000-0 0  9990
2 13624 012.4010 324.7924 0001730 329.1662 131.2160 01.00380504096232
Source of the keplerian elements: AFSPC